Fosston, MN

2:45 PM CDT on March 29, 2017 (GMT -0500)
Fosston Municipal

Weather History for KFSE - May, 2013

Change the Weather History Date:

Wednesday, May 1, 2013

  Actual Average Record
Temperature  
Mean Temperature 30 °F -  
Max Temperature 35 °F 58 °F 89 °F (1959)
Min Temperature 24 °F 34 °F 19 °F (1958)
Degree Days  
Heating Degree Days 36    
Moisture  
Dew Point 22 °F    
Average Humidity 73    
Maximum Humidity 93    
Minimum Humidity 60    
Precipitation  
Precipitation 0.00 in - - ()
Sea Level Pressure  
Sea Level Pressure 30.36 in    
Wind  
Wind Speed 14 mph (WNW)    
Max Wind Speed 22 mph    
Max Gust Speed 28 mph    
Visibility 10 miles    
Events      
Averages and records for this station are not official NWS values.
T = Trace of Precipitation, MM = Missing Value Source: NWS Daily Summary

Daily Weather History Graph

Daily Weather History Graph

Search for Another Location

Airport or City:

Trip Planner

Search our weather history database for the weather conditions in past years. The results will help you decide how hot, cold, wet, or windy it might be!

Date:

Astronomy

May. 01, 2013 Rise Set
Actual Time 6:05 AM CDT 8:35 PM CDT
Civil Twilight 5:31 AM CDT 9:10 PM CDT
Nautical Twilight 4:47 AM CDT 9:53 PM CDT
Astronomical Twilight 3:58 AM CDT 10:44 PM CDT
Moon 1:46 AM CDT (5/1) 11:45 AM CDT (5/1)
Length of Visible Light 15h 39m
Length of Day
14h 30m
Waning Gibbous, 59% of the Moon is Illuminated
May 1
Waning Gibbous
May 2
Last Quarter
May 9
New
May 17
First Quarter
May 24
Full

Hourly Weather History & Observations

Time (CDT) Temp. Windchill Dew Point Humidity Pressure Visibility Wind Dir Wind Speed Gust Speed Precip Events Conditions
12:15 AM 30.2 °F 18.1 °F 23.0 °F 75% 30.03 in 10.0 mi West 18.4 mph 21.9 mph N/A   Overcast
12:35 AM 30.2 °F 17.1 °F 21.2 °F 69% 30.04 in 10.0 mi West 21.9 mph 27.6 mph N/A   Overcast
12:55 AM 28.4 °F 15.4 °F 21.2 °F 74% 30.05 in 10.0 mi West 19.6 mph 26.5 mph N/A   Mostly Cloudy
1:15 AM 28.4 °F 15.1 °F 21.2 °F 74% 30.05 in 10.0 mi West 20.7 mph - N/A   Mostly Cloudy
1:35 AM 28.4 °F 16.6 °F 21.2 °F 74% 30.07 in 10.0 mi West 16.1 mph 21.9 mph N/A   Mostly Cloudy
2:15 AM 28.4 °F 17.0 °F 21.2 °F 74% 30.08 in 10.0 mi West 15.0 mph 24.2 mph N/A   Scattered Clouds
2:35 AM 28.4 °F 17.5 °F 21.2 °F 74% 30.09 in 10.0 mi WNW 13.8 mph 21.9 mph N/A   Clear
3:15 AM 28.4 °F 17.5 °F 19.4 °F 69% 30.10 in 10.0 mi West 13.8 mph - N/A   Clear
3:35 AM 26.6 °F 15.7 °F 21.2 °F 80% 30.11 in 10.0 mi West 12.7 mph - N/A   Clear
3:55 AM 26.6 °F 15.2 °F 21.2 °F 80% 30.12 in 10.0 mi West 13.8 mph 17.3 mph N/A   Clear
4:15 AM 26.6 °F 15.7 °F 19.4 °F 74% 30.13 in 10.0 mi West 12.7 mph 18.4 mph N/A   Scattered Clouds
4:35 AM 26.6 °F 14.3 °F 21.2 °F 80% 30.15 in 10.0 mi WNW 16.1 mph 20.7 mph N/A   Mostly Cloudy
5:15 AM 26.6 °F 14.7 °F 19.4 °F 74% 30.16 in 10.0 mi WNW 15.0 mph - N/A   Overcast
5:35 AM 26.6 °F 16.2 °F 19.4 °F 74% 30.16 in 10.0 mi WNW 11.5 mph 17.3 mph N/A   Overcast
5:55 AM 26.6 °F 18.2 °F 19.4 °F 74% 30.17 in 10.0 mi WNW 8.1 mph 17.3 mph N/A   Overcast
6:15 AM 26.6 °F 14.7 °F 19.4 °F 74% 30.19 in 10.0 mi WNW 15.0 mph - N/A   Overcast
6:35 AM 26.6 °F 15.7 °F 19.4 °F 74% 30.21 in 10.0 mi WNW 12.7 mph 17.3 mph N/A   Overcast
6:55 AM 28.4 °F 18.5 °F 19.4 °F 69% 30.22 in 10.0 mi WNW 11.5 mph - N/A   Overcast
7:15 AM 28.4 °F 19.7 °F 19.4 °F 69% 30.24 in 10.0 mi WNW 9.2 mph - N/A   Overcast
7:35 AM 28.4 °F 18.5 °F 21.2 °F 74% 30.27 in 10.0 mi West 11.5 mph 16.1 mph N/A   Overcast
8:15 AM 28.4 °F 19.7 °F 19.4 °F 69% 30.29 in 10.0 mi WNW 9.2 mph - N/A   Overcast
8:35 AM 28.4 °F 18.0 °F 19.4 °F 69% 30.30 in 10.0 mi WNW 12.7 mph - N/A   Overcast
8:55 AM 28.4 °F 19.7 °F 19.4 °F 69% 30.30 in 10.0 mi WNW 9.2 mph - N/A   Overcast
9:15 AM 28.4 °F 18.5 °F 21.2 °F 74% 30.32 in 10.0 mi West 11.5 mph 16.1 mph N/A   Overcast
9:35 AM 28.4 °F 17.0 °F 21.2 °F 74% 30.32 in 10.0 mi WNW 15.0 mph 18.4 mph N/A   Overcast
9:55 AM 30.2 °F 21.3 °F 19.4 °F 64% 30.32 in 10.0 mi WNW 10.4 mph 18.4 mph N/A   Overcast
10:15 AM 32.0 °F 21.6 °F 19.4 °F 60% 30.33 in 10.0 mi WNW 15.0 mph 18.4 mph N/A   Mostly Cloudy
10:35 AM 30.2 °F 18.9 °F 21.2 °F 69% 30.33 in 10.0 mi NW 16.1 mph - N/A   Overcast
11:15 AM 32.0 °F 22.1 °F 21.2 °F 64% 30.36 in 10.0 mi WNW 13.8 mph 19.6 mph N/A   Overcast
11:35 AM 32.0 °F 23.0 °F 21.2 °F 64% 30.36 in 10.0 mi NW 11.5 mph 17.3 mph N/A   Overcast
11:55 AM 33.8 °F 23.5 °F 21.2 °F 60% 30.36 in 10.0 mi NW 16.1 mph 19.6 mph N/A   Overcast
12:15 PM 32.0 °F 21.2 °F 23.0 °F 69% 30.38 in 10.0 mi NW 16.1 mph 21.9 mph N/A   Overcast
12:35 PM 33.8 °F 25.3 °F 23.0 °F 65% 30.38 in 10.0 mi NW 11.5 mph 21.9 mph N/A   Overcast
1:15 PM 33.8 °F 24.3 °F 23.0 °F 65% 30.40 in 10.0 mi WNW 13.8 mph 18.4 mph N/A   Overcast
1:35 PM 33.8 °F 23.5 °F 23.0 °F 65% 30.41 in 10.0 mi WNW 16.1 mph 20.7 mph N/A   Overcast
1:55 PM 33.8 °F 23.9 °F 24.8 °F 70% 30.43 in 10.0 mi WNW 15.0 mph 23.0 mph N/A   Overcast
2:15 PM 33.8 °F 23.9 °F 24.8 °F 70% 30.43 in 10.0 mi WNW 15.0 mph - N/A   Overcast
2:35 PM 33.8 °F 23.5 °F 24.8 °F 70% 30.44 in 10.0 mi WNW 16.1 mph 20.7 mph N/A   Overcast
2:55 PM 33.8 °F 24.3 °F 24.8 °F 70% 30.44 in 10.0 mi WNW 13.8 mph - N/A   Overcast
3:15 PM 33.8 °F 24.3 °F 26.6 °F 75% 30.45 in 10.0 mi WNW 13.8 mph 21.9 mph N/A   Overcast
3:35 PM 33.8 °F 24.8 °F 26.6 °F 75% 30.45 in 10.0 mi NW 12.7 mph - N/A   Overcast
3:55 PM 35.6 °F 25.5 °F 26.6 °F 70% 30.46 in 10.0 mi WNW 17.3 mph 21.9 mph N/A   Overcast
4:15 PM 33.8 °F 24.8 °F 26.6 °F 75% 30.46 in 10.0 mi NW 12.7 mph 21.9 mph N/A   Overcast
4:35 PM 33.8 °F 23.2 °F 26.6 °F 75% 30.48 in 10.0 mi NW 17.3 mph - N/A   Overcast
5:15 PM 33.8 °F 23.9 °F 26.6 °F 75% 30.49 in 10.0 mi NW 15.0 mph 19.6 mph N/A   Overcast
5:35 PM 33.8 °F 24.3 °F 24.8 °F 70% 30.50 in 10.0 mi NW 13.8 mph - N/A   Overcast
5:55 PM 33.8 °F 24.3 °F 24.8 °F 70% 30.51 in 10.0 mi NW 13.8 mph - N/A   Overcast
6:15 PM 33.8 °F 23.5 °F 24.8 °F 70% 30.51 in 10.0 mi NW 16.1 mph - N/A   Overcast
6:35 PM 33.8 °F 24.3 °F 24.8 °F 70% 30.52 in 10.0 mi NW 13.8 mph 19.6 mph N/A   Overcast
6:55 PM 33.8 °F 26.4 °F 24.8 °F 70% 30.52 in 10.0 mi NW 9.2 mph - N/A   Overcast
7:00 PM 33.8 °F 25.3 °F 24.8 °F 70% 30.53 in 10.0 mi NW 11.5 mph - N/A   Overcast
7:35 PM 32.0 °F 23.0 °F 24.8 °F 75% 30.54 in 10.0 mi WNW 11.5 mph - N/A   Overcast
7:55 PM 32.0 °F 23.0 °F 24.8 °F 75% 30.55 in 10.0 mi WNW 11.5 mph - N/A   Overcast
8:15 PM 32.0 °F 23.0 °F 23.0 °F 69% 30.56 in 10.0 mi NW 11.5 mph 17.3 mph N/A   Overcast
8:35 PM 32.0 °F 23.6 °F 24.8 °F 75% 30.56 in 10.0 mi NW 10.4 mph 16.1 mph N/A   Overcast
8:55 PM 30.2 °F 20.8 °F 21.2 °F 69% 30.57 in 10.0 mi NNW 11.5 mph 16.1 mph N/A   Overcast
9:35 PM 28.4 °F 21.2 °F 23.0 °F 80% 30.57 in 10.0 mi NNW 6.9 mph - N/A   Clear
9:55 PM 28.4 °F - 23.0 °F 80% 30.57 in 10.0 mi Calm Calm - N/A   Clear
10:15 PM 26.6 °F - 23.0 °F 86% 30.57 in 10.0 mi Calm Calm - N/A   Clear
10:35 PM 26.6 °F - 21.2 °F 80% 30.58 in 10.0 mi Calm Calm - N/A   Clear
10:55 PM 24.8 °F - 21.2 °F 86% 30.57 in 10.0 mi Calm Calm - N/A   Clear
11:15 PM 26.6 °F - 23.0 °F 86% 30.58 in 10.0 mi Calm Calm - N/A   Clear
11:35 PM 26.6 °F - 24.8 °F 93% 30.58 in 10.0 mi Calm Calm - N/A   Clear
11:55 PM 26.6 °F 20.0 °F 24.8 °F 93% 30.58 in 10.0 mi NNW 5.8 mph - N/A   Clear